Location: Newark
(42.7133°N, 87.7910°W)
Time: 16:10:03
(UTC+00:00)

Tiros 1 - Pass Details

Date: 29 September 2019
Orbit: 630 x 664 km, 48.4° (Epoch: 19 October)

Event Time Altitude Azimuth Distance (km) Brightness Sun altitude
Rises 19:29:47 0° 293° (WNW) 2,975 10.7 38.6°
Reaches altitude 10° 19:32:11 10° 298° (WNW) 2,057 9.9 38.3°
Maximum altitude 19:36:50 55° 17° (NNE) 778 7.7 37.8°
Drops below altitude 10° 19:41:26 10° 95° (E) 2,030 9.5 37.3°
Sets 19:43:48 0° 100° (E) 2,932 10.3 37.0°
